Starlink 32350

operational
NORAD ID: 61063 Int'l Des: 2024-164 Owner: SPXS Country: US Constellation: starlink
LEOCIRCULAR

Starlink 32350について

説明を読み込み中...

リアルタイム位置

3D地球を読み込み中...

次回通過

高度履歴

Altitude vs Time

uPlot chart will show altitude changes over time

軌道要素

1 61063U 24164P 25306.36390284 -.00001376 00000-0 -34369-4 0 9992
2 61063 53.1612 322.5199 0001207 94.8327 265.2811 15.30173461 63982
Epoch: Nov 2, 2025 • Age: 32 hours

現在のステータス

高度 480.0 km
速度 7.63 km/s
衛星直下点 48.44°N, 147.47°E
打ち上げ日 Sep 13, 2024
運用期間 1.1 years
タイプ internet

技術仕様

分類 Payload
質量 730.00 kg
乾燥質量 700.00 kg
総質量 730.00 kg
長さ 0.30 m
直径 4.10 m
スパン 29.00 m
形状 Box + pan
製造者 SPXS
バスタイプ Starlink V2M
フェーズステータス In Orbit
所有者/国 SPXS/US

大規模コンステレーション

Loading constellations...